ETD18M EDDF-OMAA

Flight info

Callsign ETD18M
Flight time N/A
Altitude 35000
Route CINDY8S/18 CINDY Z74 HAREM DCT ASLEP DCT TAKUT DCT DINKU L603 BESNI L605 MIQ DCT ALUTU DCT BIBAG L605 ESEGA DCT LIMRA DCT NURMI DCT NIDLO DCT VABEK UL603 OLOTA DCT RUGAS DCT PEREN DCT RIKSO UP14 LAVTA UN135 NESIL UT39 TOMBI DCT BALMA UR655 CAK UN310 LATEB N310 BASEM R785 RASLI P559 TRF R23 NEVOL N318 TAMRO T503 KSA N687 KINIB Z511 GISRA L681 ORLEK DCT KUPRO N300 KAXOB Q415 UKILI
Aircraft B77W/H-SDE1E2E3FGHIJ2J3J4J5M1RWXY/LB1D1

Departure

Time N/A
Airport Frankfurt Main Airport (EDDF)

Arrival

Time 2026-05-03 22:03
Airport Zayed International Airport (OMAA)
Time Latitude Longitude Altitude Speed Heading
2026-05-03 21:50 24.64157 53.93596 14040 ft 376 kts 119°
2026-05-03 21:50 24.63533 53.94849 13952 ft 371 kts 117°
2026-05-03 21:51 24.60651 54.01623 13354 ft 350 kts 114°
2026-05-03 21:51 24.53005 54.20194 11604 ft 324 kts 114°
2026-05-03 21:51 24.50723 54.26816 11465 ft 314 kts 109°
2026-05-03 21:51 24.49513 54.30460 11309 ft 325 kts 110°
2026-05-03 21:52 24.48704 54.32816 11177 ft 332 kts 110°
2026-05-03 21:52 24.47885 54.35185 11017 ft 331 kts 110°
2026-05-03 21:52 24.47065 54.37548 10731 ft 332 kts 110°
2026-05-03 21:52 24.46245 54.39912 10463 ft 329 kts 110°
2026-05-03 21:53 24.45434 54.42250 10187 ft 326 kts 110°
2026-05-03 21:53 24.44640 54.44537 10055 ft 316 kts 110°
2026-05-03 21:53 24.43873 54.46748 9811 ft 314 kts 110°
2026-05-03 21:53 24.43093 54.48994 9448 ft 315 kts 111°
2026-05-03 21:54 24.42308 54.51250 9009 ft 318 kts 111°
2026-05-03 21:54 24.41313 54.53410 8508 ft 317 kts 126°
2026-05-03 21:54 24.39954 54.55322 8037 ft 319 kts 130°
2026-05-03 21:54 24.38544 54.57218 7588 ft 323 kts 130°
2026-05-03 21:55 24.37139 54.59119 7133 ft 326 kts 130°
2026-05-03 21:55 24.35713 54.61070 6678 ft 328 kts 130°
2026-05-03 21:55 24.34286 54.63040 6234 ft 330 kts 129°
2026-05-03 21:55 24.32900 54.64968 5715 ft 313 kts 129°
2026-05-03 21:56 24.31591 54.66795 5221 ft 297 kts 129°
2026-05-03 21:56 24.30342 54.68538 4730 ft 283 kts 129°
2026-05-03 21:56 24.29153 54.70183 4252 ft 276 kts 129°
2026-05-03 21:56 24.27938 54.71850 3809 ft 283 kts 129°
2026-05-03 21:57 24.26760 54.73585 3337 ft 283 kts 117°
2026-05-03 21:57 24.26270 54.75627 3122 ft 274 kts 87°
2026-05-03 21:57 24.26695 54.77587 3010 ft 258 kts 58°
2026-05-03 21:57 24.27820 54.79000 2998 ft 237 kts 36°
2026-05-03 21:58 24.29115 54.80073 2995 ft 233 kts 33°
2026-05-03 21:58 24.30510 54.80938 2856 ft 231 kts 12°
2026-05-03 21:58 24.32071 54.80923 2619 ft 223 kts 338°
2026-05-03 21:58 24.33252 54.79964 2547 ft 208 kts 304°
2026-05-03 21:59 24.33984 54.78614 2527 ft 207 kts 301°
2026-05-03 21:59 24.34726 54.77313 2357 ft 200 kts 304°
2026-05-03 21:59 24.35515 54.76118 2111 ft 185 kts 307°
2026-05-03 21:59 24.36271 54.75044 1852 ft 171 kts 308°
2026-05-03 22:00 24.36959 54.74074 1642 ft 152 kts 308°
2026-05-03 22:00 24.37590 54.73183 1486 ft 149 kts 308°
2026-05-03 22:00 24.38228 54.72281 1289 ft 149 kts 308°
2026-05-03 22:00 24.38857 54.71388 1082 ft 147 kts 308°
2026-05-03 22:01 24.39484 54.70506 909 ft 146 kts 308°
2026-05-03 22:01 24.40115 54.69613 775 ft 149 kts 308°
2026-05-03 22:01 24.40752 54.68702 627 ft 151 kts 307°
2026-05-03 22:01 24.41405 54.67794 397 ft 152 kts 307°
2026-05-03 22:02 24.42053 54.66877 189 ft 152 kts 307°
2026-05-03 22:02 24.42691 54.65982 100 ft 138 kts 307°
2026-05-03 22:02 24.43229 54.65229 102 ft 115 kts 308°
2026-05-03 22:02 24.43682 54.64585 96 ft 98 kts 308°
2026-05-03 22:03 24.44048 54.64070 99 ft 68 kts 308°
2026-05-03 22:03 24.44268 54.63762 96 ft 36 kts 308°
2026-05-03 22:03 24.44373 54.63616 97 ft 17 kts 308°
2026-05-03 22:03 24.44423 54.63557 99 ft 8 kts 332°
2026-05-03 22:04 24.44476 54.63573 98 ft 9 kts 38°
2026-05-03 22:04 24.44517 54.63608 99 ft 2 kts 37°
2026-05-03 22:04 24.44529 54.63619 99 ft 3 kts 37°
2026-05-03 22:04 24.44565 54.63648 100 ft 9 kts 36°
2026-05-03 22:05 24.44620 54.63691 100 ft 10 kts 36°
2026-05-03 22:05 24.44677 54.63740 100 ft 11 kts 38°
2026-05-03 22:05 24.44725 54.63807 99 ft 12 kts 64°
2026-05-03 22:05 24.44761 54.63891 98 ft 13 kts 65°
2026-05-03 22:06 24.44798 54.63980 98 ft 12 kts 66°
2026-05-03 22:06 24.44821 54.64061 99 ft 11 kts 94°
2026-05-03 22:06 24.44789 54.64123 100 ft 8 kts 119°
2026-05-03 22:06 24.44790 54.64176 99 ft 5 kts 79°
2026-05-03 22:07 24.44796 54.64201 99 ft 1 kts 73°
2026-05-03 22:07 24.44799 54.64211 99 ft 1 kts 73°
2026-05-03 22:07 24.44801 54.64218 98 ft 1 kts 73°
2026-05-03 22:07 24.44802 54.64222 98 ft 0 kts 73°
2026-05-03 22:08 24.44802 54.64223 98 ft 0 kts 73°